| time (UTC) | temp C | wind direction | speed KPH | gust KPH | rain 1hr cm | rain 24hr cm | rain mn cm | humidity % | barometer mb |
| 20260505092751 | 10 | 163 | 0.0 | 0.0 | 0.00 | 0.00 | 0.00 | 99 | 1012.6 |
| 20260505092250 | 10 | 166 | 0.0 | 0.0 | 0.00 | 0.00 | 0.00 | 99 | 1012.3 |
| 20260505091747 | 10 | 160 | 0.0 | 0.0 | 0.00 | 0.00 | 0.00 | 99 | 1012.6 |
| 20260505091245 | 10 | 168 | 0.0 | 0.0 | 0.00 | 0.00 | 0.00 | 99 | 1012.5 |
| 20260505090742 | 10 | 170 | 0.0 | 0.0 | 0.00 | 0.00 | 0.00 | 99 | 1012.5 |
| 20260505090240 | 10 | 150 | 0.0 | 0.0 | 0.00 | 0.00 | 0.00 | 99 | 1012.5 |
| 20260505085737 | 10 | 149 | 0.0 | 0.0 | 0.00 | 0.00 | 0.00 | 99 | 1012.2 |
| 20260505085235 | 10 | 170 | 0.0 | 0.0 | 0.00 | 0.00 | 0.00 | 99 | 1012.4 |
| 20260505084732 | 10 | 182 | 0.0 | 0.0 | 0.00 | 0.00 | 0.00 | 99 | 1012.3 |
| 20260505084231 | 9 | 159 | 0.0 | 0.0 | 0.00 | 0.00 | 0.00 | 99 | 1012.3 |
| 20260505083728 | 9 | 169 | 0.0 | 0.0 | 0.00 | 0.00 | 0.00 | 99 | 1012.3 |
| 20260505083224 | 9 | 177 | 0.0 | 0.0 | 0.00 | 0.00 | 0.00 | 99 | 1012.5 |
| 20260505082720 | 9 | 168 | 0.0 | 0.0 | 0.00 | 0.00 | 0.00 | 99 | 1012.3 |
| 20260505082218 | 9 | 152 | 0.0 | 0.0 | 0.00 | 0.00 | 0.00 | 99 | 1012.3 |
| 20260505081713 | 9 | 147 | 0.0 | 0.0 | 0.00 | 0.00 | 0.00 | 99 | 1012.3 |
| 20260505081211 | 9 | 150 | 0.0 | 0.0 | 0.00 | 0.00 | 0.00 | 99 | 1012.2 |
| 20260505080708 | 9 | 181 | 0.0 | 0.0 | 0.00 | 0.00 | 0.00 | 99 | 1012.3 |
| 20260505080204 | 9 | 172 | 0.0 | 0.0 | 0.00 | 0.00 | 0.00 | 99 | 1012.3 |
| 20260505075700 | 9 | 164 | 0.0 | 0.0 | 0.00 | 0.00 | 0.00 | 99 | 1012.3 |
| 20260505075157 | 9 | 176 | 0.0 | 0.0 | 0.00 | 0.00 | 0.00 | 99 | 1012.0 |
| 20260505074654 | 9 | 168 | 0.0 | 0.0 | 0.00 | 0.00 | 0.00 | 99 | 1012.0 |
| 20260505074150 | 9 | 163 | 0.0 | 0.0 | 0.00 | 0.00 | 0.00 | 99 | 1012.1 |
| 20260505073648 | 9 | 153 | 0.0 | 0.0 | 0.00 | 0.00 | 0.00 | 99 | 1011.9 |
| 20260505073146 | 9 | 145 | 0.0 | 0.0 | 0.00 | 0.00 | 0.00 | 99 | 1011.9 |
| 20260505072641 | 9 | 162 | 0.0 | 0.0 | 0.00 | 0.00 | 0.00 | 99 | 1011.8 |
| 20260505072138 | 9 | 154 | 0.0 | 0.0 | 0.00 | 0.00 | 0.00 | 99 | 1012.0 |
| 20260505071634 | 9 | 153 | 0.0 | 0.0 | 0.00 | 0.00 | 0.00 | 99 | 1011.9 |
| 20260505071132 | 9 | 141 | 0.0 | 0.0 | 0.00 | 0.00 | 0.00 | 99 | 1012.0 |
| 20260505070629 | 10 | 156 | 0.0 | 0.0 | 0.00 | 0.00 | 0.00 | 99 | 1012.2 |
| 20260505070125 | 10 | 162 | 0.0 | 0.0 | 0.00 | 0.00 | 0.00 | 99 | 1012.0 |
| 20260505065621 | 10 | 162 | 0.0 | 0.0 | 0.00 | 0.00 | 0.00 | 99 | 1012.0 |
| 20260505065118 | 10 | 161 | 0.0 | 0.0 | 0.00 | 0.00 | 0.00 | 99 | 1012.0 |
| 20260505064615 | 10 | 162 | 0.0 | 0.0 | 0.00 | 0.00 | 0.00 | 99 | 1012.3 |
| 20260505064114 | 10 | 166 | 0.0 | 0.0 | 0.00 | 0.00 | 0.00 | 99 | 1012.1 |
| 20260505063610 | 10 | 155 | 0.0 | 0.0 | 0.00 | 0.00 | 0.00 | 99 | 1012.1 |
| 20260505063106 | 10 | 155 | 0.0 | 0.0 | 0.00 | 0.00 | 0.00 | 99 | 1012.1 |
| 20260505062603 | 10 | 155 | 0.0 | 0.0 | 0.00 | 0.00 | 0.00 | 99 | 1012.0 |
| 20260505062100 | 10 | 158 | 0.0 | 0.0 | 0.00 | 0.00 | 0.00 | 99 | 1012.3 |
| 20260505061557 | 10 | 143 | 0.0 | 0.0 | 0.00 | 0.00 | 0.00 | 99 | 1012.2 |
| 20260505061055 | 10 | 144 | 0.0 | 0.0 | 0.00 | 0.00 | 0.00 | 99 | 1012.2 |
| 20260505060552 | 10 | 149 | 0.0 | 0.0 | 0.00 | 0.00 | 0.00 | 99 | 1012.2 |
| 20260505060049 | 10 | 149 | 0.0 | 0.0 | 0.00 | 0.00 | 0.00 | 99 | 1012.2 |
| 20260505055544 | 10 | 149 | 0.0 | 0.0 | 0.00 | 0.00 | 0.00 | 99 | 1012.2 |
| 20260505055041 | 10 | 149 | 0.0 | 0.0 | 0.00 | 0.00 | 0.00 | 99 | 1012.4 |
| 20260505054539 | 10 | 149 | 0.0 | 0.0 | 0.00 | 0.00 | 0.00 | 99 | 1012.2 |
| 20260505054037 | 10 | 151 | 0.0 | 0.0 | 0.00 | 0.00 | 0.00 | 99 | 1012.3 |
| 20260505053533 | 10 | 151 | 0.0 | 0.0 | 0.00 | 0.00 | 0.00 | 99 | 1012.3 |
| 20260505053030 | 10 | 151 | 0.0 | 0.0 | 0.00 | 0.00 | 0.00 | 99 | 1012.3 |
| 20260505052527 | 10 | 152 | 0.0 | 0.0 | 0.00 | 0.00 | 0.00 | 99 | 1012.2 |
| 20260505052025 | 10 | 158 | 0.0 | 0.0 | 0.00 | 0.00 | 0.00 | 99 | 1012.0 |
| 20260505051521 | 10 | 158 | 0.0 | 0.0 | 0.00 | 0.00 | 0.00 | 99 | 1012.2 |
| 20260505051020 | 10 | 164 | 0.0 | 0.0 | 0.00 | 0.00 | 0.00 | 99 | 1012.1 |
| 20260505050517 | 10 | 209 | 0.0 | 0.0 | 0.00 | 0.00 | 0.00 | 99 | 1011.9 |
| 20260505041445 | 10 | 148 | 0.0 | 0.0 | 0.00 | 0.00 | 0.00 | 99 | 1011.7 |
| 20260505040942 | 10 | 148 | 0.0 | 0.0 | 0.00 | 0.00 | 0.00 | 99 | 1011.6 |
| 20260505040440 | 10 | 145 | 0.0 | 0.0 | 0.00 | 0.00 | 0.00 | 99 | 1011.6 |
| 20260505035936 | 10 | 144 | 0.0 | 0.0 | 0.00 | 0.00 | 0.00 | 99 | 1011.5 |
| 20260505035432 | 10 | 144 | 0.0 | 0.0 | 0.00 | 0.00 | 0.00 | 99 | 1011.4 |
| 20260505034930 | 10 | 145 | 0.0 | 0.0 | 0.00 | 0.00 | 0.00 | 99 | 1011.5 |
| 20260505034426 | 10 | 152 | 0.0 | 0.0 | 0.00 | 0.00 | 0.00 | 99 | 1011.5 |
| 20260505033923 | 10 | 149 | 0.0 | 0.0 | 0.00 | 0.00 | 0.00 | 99 | 1011.3 |
| 20260505033420 | 11 | 136 | 0.0 | 0.0 | 0.00 | 0.00 | 0.00 | 99 | 1011.4 |
| 20260505032918 | 11 | 224 | 0.0 | 0.0 | 0.00 | 0.00 | 0.00 | 99 | 1011.6 |
| 20260505032415 | 11 | 130 | 0.0 | 0.0 | 0.00 | 0.00 | 0.00 | 99 | 1011.5 |
| 20260505031911 | 11 | 129 | 0.0 | 0.0 | 0.00 | 0.00 | 0.00 | 99 | 1011.4 |
| 20260505031408 | 11 | 170 | 0.0 | 0.0 | 0.00 | 0.00 | 0.00 | 98 | 1011.6 |
| 20260505030905 | 11 | 166 | 0.0 | 0.0 | 0.00 | 0.00 | 0.00 | 98 | 1011.6 |
| 20260505030401 | 11 | 166 | 0.0 | 0.0 | 0.00 | 0.00 | 0.00 | 98 | 1011.5 |
| 20260505025856 | 11 | 153 | 0.0 | 0.0 | 0.00 | 0.00 | 0.00 | 98 | 1011.6 |
| 20260505025354 | 11 | 180 | 0.0 | 0.0 | 0.00 | 0.00 | 0.00 | 98 | 1011.5 |
| 20260505024853 | 11 | 180 | 0.0 | 0.0 | 0.00 | 0.00 | 0.00 | 98 | 1011.5 |
| 20260505024350 | 11 | 180 | 0.0 | 0.0 | 0.00 | 0.00 | 0.00 | 97 | 1011.4 |
| 20260505023847 | 11 | 181 | 0.0 | 0.0 | 0.00 | 0.00 | 0.00 | 97 | 1011.4 |
| 20260505023344 | 11 | 180 | 0.0 | 0.0 | 0.00 | 0.00 | 0.00 | 97 | 1011.4 |
| 20260505022841 | 11 | 180 | 0.0 | 0.0 | 0.00 | 0.00 | 0.00 | 96 | 1011.6 |
| 20260505022338 | 11 | 180 | 0.0 | 0.0 | 0.00 | 0.00 | 0.00 | 96 | 1011.4 |
| 20260505021836 | 11 | 221 | 0.0 | 0.0 | 0.00 | 0.00 | 0.00 | 96 | 1011.2 |
| 20260505021332 | 11 | 182 | 0.0 | 0.0 | 0.00 | 0.00 | 0.00 | 96 | 1011.4 |
| 20260505020828 | 12 | 182 | 0.0 | 0.0 | 0.00 | 0.00 | 0.00 | 95 | 1011.3 |
| 20260505020324 | 12 | 182 | 0.0 | 0.0 | 0.00 | 0.00 | 0.00 | 95 | 1011.4 |
| 20260505015820 | 12 | 182 | 0.0 | 0.0 | 0.00 | 0.00 | 0.00 | 95 | 1011.4 |
| 20260505015318 | 12 | 182 | 0.0 | 0.0 | 0.00 | 0.00 | 0.00 | 94 | 1011.4 |
| 20260505014815 | 12 | 182 | 0.0 | 0.0 | 0.00 | 0.00 | 0.00 | 93 | 1011.4 |
| 20260505014312 | 12 | 182 | 0.0 | 0.0 | 0.00 | 0.00 | 0.00 | 94 | 1011.3 |
| 20260505013808 | 12 | 182 | 0.0 | 0.0 | 0.00 | 0.00 | 0.00 | 93 | 1011.4 |
| 20260505013306 | 12 | 181 | 0.0 | 0.0 | 0.00 | 0.00 | 0.00 | 92 | 1011.3 |
| 20260505012804 | 12 | 181 | 0.0 | 0.0 | 0.00 | 0.00 | 0.00 | 92 | 1011.3 |
| 20260505012304 | 12 | 199 | 0.0 | 0.0 | 0.00 | 0.00 | 0.00 | 92 | 1011.3 |
| 20260505011757 | 13 | 199 | 0.0 | 0.0 | 0.00 | 0.00 | 0.00 | 91 | 1011.3 |
| 20260505011254 | 13 | 199 | 0.0 | 0.0 | 0.00 | 0.00 | 0.00 | 91 | 1011.1 |
| 20260505010750 | 13 | 199 | 0.0 | 0.0 | 0.00 | 0.00 | 0.00 | 90 | 1011.2 |
| 20260505010247 | 13 | 199 | 0.0 | 0.0 | 0.00 | 0.00 | 0.00 | 90 | 1011.4 |
| 20260505005743 | 13 | 199 | 0.0 | 0.0 | 0.00 | 0.00 | 0.00 | 89 | 1011.1 |
| 20260505005241 | 13 | 199 | 0.0 | 0.0 | 0.00 | 0.00 | 0.00 | 88 | 1011.2 |
| 20260505004737 | 14 | 199 | 0.0 | 0.0 | 0.00 | 0.00 | 0.00 | 87 | 1011.0 |
| 20260505004234 | 14 | 199 | 0.0 | 0.0 | 0.00 | 0.00 | 0.00 | 87 | 1011.0 |
| 20260505003731 | 14 | 199 | 0.0 | 0.0 | 0.00 | 0.00 | 0.00 | 86 | 1011.1 |
| 20260505003229 | 15 | 199 | 0.0 | 0.0 | 0.00 | 0.00 | 0.00 | 86 | 1011.2 |
| 20260505002725 | 15 | 199 | 0.0 | 0.0 | 0.00 | 0.00 | 0.00 | 85 | 1011.4 |
| 20260505002222 | 15 | 199 | 0.0 | 0.0 | 0.00 | 0.00 | 0.00 | 84 | 1011.3 |
| 20260505001720 | 15 | 199 | 0.0 | 0.0 | 0.00 | 0.00 | 0.00 | 82 | 1011.5 |
| 20260505001217 | 16 | 199 | 0.0 | 0.0 | 0.00 | 0.00 | 0.00 | 82 | 1011.4 |
| 20260505000714 | 16 | 199 | 0.0 | 0.0 | 0.00 | 0.00 | 0.00 | 81 | 1011.4 |
| 20260505000212 | 16 | 199 | 0.0 | 0.0 | 0.00 | 0.00 | 0.00 | 80 | 1011.5 |
| 20260504235708 | 16 | 199 | 0.0 | 0.0 | 0.00 | 0.00 | 0.00 | 80 | 1011.3 |
| 20260504235204 | 17 | 199 | 0.0 | 0.0 | 0.00 | 0.00 | 0.00 | 79 | 1011.2 |
| 20260504234702 | 17 | 171 | 0.0 | 0.0 | 0.00 | 0.00 | 0.00 | 79 | 1011.5 |
| 20260504234159 | 17 | 171 | 0.0 | 0.0 | 0.00 | 0.00 | 0.00 | 77 | 1011.4 |
| 20260504233655 | 17 | 176 | 0.0 | 0.0 | 0.00 | 0.00 | 0.00 | 76 | 1011.4 |
| 20260504233151 | 17 | 200 | 0.0 | 0.0 | 0.00 | 0.00 | 0.00 | 76 | 1011.6 |
| 20260504232648 | 17 | 199 | 0.0 | 0.0 | 0.00 | 0.00 | 0.00 | 74 | 1011.5 |
| 20260504232145 | 18 | 169 | 0.0 | 0.0 | 0.00 | 0.00 | 0.00 | 71 | 1011.6 |
| 20260504231642 | 18 | 157 | 0.0 | 1.6 | 0.00 | 0.00 | 0.00 | 72 | 1011.6 |
| 20260504231138 | 18 | 214 | 0.0 | 0.0 | 0.00 | 0.00 | 0.00 | 70 | 1011.7 |
| 20260504230635 | 19 | 218 | 0.0 | 0.0 | 0.00 | 0.00 | 0.00 | 70 | 1011.7 |
| 20260504230134 | 20 | 217 | 0.0 | 0.0 | 0.00 | 0.00 | 0.00 | 65 | 1011.5 |
| 20260504225631 | 20 | 222 | 0.0 | 0.0 | 0.00 | 0.00 | 0.00 | 63 | 1011.7 |
| 20260504225127 | 21 | 214 | 0.0 | 0.0 | 0.00 | 0.00 | 0.00 | 59 | 1012.0 |
| 20260504224624 | 21 | 187 | 0.0 | 3.2 | 0.00 | 0.00 | 0.00 | 55 | 1011.8 |
| 20260504224120 | 21 | 129 | 3.2 | 4.8 | 0.00 | 0.00 | 0.00 | 51 | 1011.9 |
| 20260504223617 | 22 | 41 | 3.2 | 3.2 | 0.00 | 0.00 | 0.00 | 52 | 1012.0 |
| 20260504223114 | 22 | 41 | 1.6 | 3.2 | 0.00 | 0.00 | 0.00 | 50 | 1012.0 |
| 20260504222611 | 22 | 56 | 3.2 | 4.8 | 0.00 | 0.00 | 0.00 | 48 | 1011.9 |
| 20260504222108 | 23 | 272 | 3.2 | 4.8 | 0.00 | 0.00 | 0.00 | 47 | 1012.2 |
| 20260504221605 | 23 | 169 | 0.0 | 3.2 | 0.00 | 0.00 | 0.00 | 46 | 1012.1 |
| 20260504221102 | 23 | 70 | 3.2 | 3.2 | 0.00 | 0.00 | 0.00 | 48 | 1012.1 |
| 20260504220558 | 22 | 269 | 1.6 | 4.8 | 0.00 | 0.00 | 0.00 | 50 | 1012.0 |
| 20260504220056 | 22 | 339 | 1.6 | 3.2 | 0.00 | 0.00 | 0.00 | 48 | 1012.1 |
| 20260504215552 | 22 | 64 | 0.0 | 1.6 | 0.00 | 0.00 | 0.00 | 52 | 1012.2 |
| 20260504215050 | 22 | 107 | 1.6 | 1.6 | 0.00 | 0.00 | 0.00 | 54 | 1011.8 |
| 20260504214545 | 22 | 334 | 3.2 | 4.8 | 0.00 | 0.00 | 0.00 | 50 | 1011.9 |
| 20260504214042 | 23 | 309 | 1.6 | 3.2 | 0.00 | 0.00 | 0.00 | 48 | 1011.9 |
| 20260504213538 | 22 | 236 | 0.0 | 3.2 | 0.00 | 0.00 | 0.00 | 47 | 1012.0 |
| 20260504213036 | 22 | 309 | 0.0 | 1.6 | 0.00 | 0.00 | 0.00 | 50 | 1012.0 |
| 20260504212531 | 21 | 250 | 1.6 | 1.6 | 0.00 | 0.00 | 0.00 | 55 | 1012.0 |
| 20260504212029 | 21 | 187 | 0.0 | 9.7 | 0.00 | 0.00 | 0.00 | 55 | 1011.8 |
| 20260504211526 | 21 | 114 | 0.0 | 1.6 | 0.00 | 0.00 | 0.00 | 59 | 1012.0 |
| 20260504211023 | 21 | 69 | 6.4 | 6.4 | 0.00 | 0.00 | 0.00 | 52 | 1012.1 |
| 20260504210520 | 22 | 80 | 3.2 | 4.8 | 0.00 | 0.00 | 0.00 | 49 | 1012.0 |
| 20260504210016 | 22 | 315 | 0.0 | 11.3 | 0.00 | 0.00 | 0.00 | 48 | 1011.8 |
| 20260504205515 | 22 | 5 | 1.6 | 1.6 | 0.00 | 0.00 | 0.00 | 46 | 1011.5 |
| 20260504205012 | 23 | 61 | 1.6 | 6.4 | 0.00 | 0.00 | 0.00 | 47 | 1011.3 |
| 20260504204510 | 22 | 105 | 1.6 | 3.2 | 0.00 | 0.00 | 0.00 | 49 | 1011.2 |
| 20260504204009 | 22 | 120 | 0.0 | 3.2 | 0.00 | 0.00 | 0.00 | 50 | 1011.5 |
| 20260504203506 | 22 | 288 | 3.2 | 4.8 | 0.00 | 0.00 | 0.00 | 47 | 1011.4 |
| 20260504203003 | 23 | 289 | 1.6 | 1.6 | 0.00 | 0.00 | 0.00 | 49 | 1011.5 |
| 20260504202459 | 22 | 285 | 1.6 | 6.4 | 0.00 | 0.00 | 0.00 | 46 | 1011.5 |
| 20260504201955 | 23 | 318 | 1.6 | 1.6 | 0.00 | 0.00 | 0.00 | 45 | 1011.7 |
| 20260504201452 | 23 | 70 | 0.0 | 6.4 | 0.00 | 0.00 | 0.00 | 48 | 1011.7 |
| 20260504200950 | 23 | 43 | 0.0 | 4.8 | 0.00 | 0.00 | 0.00 | 48 | 1011.8 |
| 20260504200446 | 22 | 10 | 1.6 | 9.7 | 0.00 | 0.00 | 0.00 | 47 | 1012.0 |
| 20260504195654 | 22 | 19 | 0.0 | 1.6 | 0.00 | 0.00 | 0.00 | 49 | 1011.9 |
| 20260504195149 | 22 | 19 | 0.0 | 1.6 | 0.00 | 0.00 | 0.00 | 49 | 1011.9 |
| 20260504194646 | 22 | 279 | 0.0 | 3.2 | 0.00 | 0.00 | 0.00 | 47 | 1012.0 |
| 20260504194142 | 23 | 37 | 1.6 | 3.2 | 0.00 | 0.00 | 0.00 | 49 | 1012.2 |
| 20260504193639 | 23 | 112 | 1.6 | 1.6 | 0.00 | 0.00 | 0.00 | 50 | 1012.1 |
| 20260504193137 | 22 | 306 | 3.2 | 4.8 | 0.00 | 0.00 | 0.00 | 47 | 1012.0 |
| 20260504192634 | 22 | 206 | 1.6 | 4.8 | 0.00 | 0.00 | 0.00 | 47 | 1012.4 |
| 20260504192132 | 22 | 73 | 1.6 | 6.4 | 0.00 | 0.00 | 0.00 | 50 | 1012.2 |
| 20260504191631 | 21 | 316 | 0.0 | 4.8 | 0.00 | 0.00 | 0.00 | 49 | 1012.4 |
| 20260504191126 | 21 | 316 | 0.0 | 4.8 | 0.00 | 0.00 | 0.00 | 49 | 1012.4 |
| 20260504190622 | 21 | 82 | 0.0 | 3.2 | 0.00 | 0.00 | 0.00 | 50 | 1012.8 |
| 20260504190119 | 22 | 216 | 0.0 | 9.7 | 0.00 | 0.00 | 0.00 | 47 | 1012.7 |
| 20260504185616 | 22 | 105 | 1.6 | 6.4 | 0.00 | 0.00 | 0.00 | 52 | 1012.8 |
| 20260504185113 | 22 | 88 | 4.8 | 9.7 | 0.00 | 0.00 | 0.00 | 50 | 1012.6 |
| 20260504184608 | 22 | 57 | 1.6 | 3.2 | 0.00 | 0.00 | 0.00 | 53 | 1012.7 |
| 20260504184104 | 22 | 248 | 1.6 | 3.2 | 0.00 | 0.00 | 0.00 | 46 | 1012.7 |
| 20260504183601 | 22 | 273 | 3.2 | 6.4 | 0.00 | 0.00 | 0.00 | 48 | 1012.4 |
| 20260504183059 | 23 | 13 | 3.2 | 4.8 | 0.00 | 0.00 | 0.00 | 45 | 1012.4 |
| 20260504182556 | 22 | 61 | 1.6 | 4.8 | 0.00 | 0.00 | 0.00 | 50 | 1012.6 |
| 20260504182053 | 22 | 106 | 0.0 | 3.2 | 0.00 | 0.00 | 0.00 | 51 | 1012.7 |
| 20260504181550 | 22 | 82 | 3.2 | 3.2 | 0.00 | 0.00 | 0.00 | 50 | 1012.5 |
| 20260504181048 | 21 | 57 | 1.6 | 9.7 | 0.00 | 0.00 | 0.00 | 50 | 1012.7 |
| 20260504180547 | 22 | 130 | 1.6 | 4.8 | 0.00 | 0.00 | 0.00 | 48 | 1012.9 |
| 20260504180046 | 22 | 106 | 1.6 | 4.8 | 0.00 | 0.00 | 0.00 | 50 | 1012.9 |
| 20260504175542 | 21 | 53 | 0.0 | 4.8 | 0.00 | 0.00 | 0.00 | 50 | 1013.0 |
| 20260504175039 | 21 | 29 | 1.6 | 3.2 | 0.00 | 0.00 | 0.00 | 50 | 1013.1 |
| 20260504174537 | 21 | 308 | 3.2 | 3.2 | 0.00 | 0.00 | 0.00 | 50 | 1013.2 |
| 20260504174034 | 21 | 310 | 3.2 | 9.7 | 0.00 | 0.00 | 0.00 | 48 | 1013.2 |
| 20260504173531 | 21 | 39 | 1.6 | 4.8 | 0.00 | 0.00 | 0.00 | 49 | 1013.3 |
| 20260504173028 | 21 | 253 | 8.0 | 9.7 | 0.00 | 0.00 | 0.00 | 51 | 1013.8 |
| 20260504172524 | 20 | 97 | 1.6 | 4.8 | 0.00 | 0.00 | 0.00 | 52 | 1013.6 |
| 20260504172021 | 20 | 98 | 1.6 | 3.2 | 0.00 | 0.00 | 0.00 | 50 | 1013.8 |
| 20260504171518 | 20 | 55 | 3.2 | 12.9 | 0.00 | 0.00 | 0.00 | 53 | 1013.7 |
| 20260504171014 | 20 | 269 | 3.2 | 3.2 | 0.00 | 0.00 | 0.00 | 50 | 1013.6 |
| 20260504170510 | 20 | 219 | 4.8 | 6.4 | 0.00 | 0.00 | 0.00 | 51 | 1013.6 |
| 20260504160431 | 18 | 330 | 3.2 | 6.4 | 0.00 | 0.00 | 0.00 | 54 | 1015.1 |
| 20260504150854 | 16 | 61 | 1.6 | 6.4 | 0.00 | 0.00 | 0.00 | 59 | 1015.8 |
| 20260504150351 | 16 | 44 | 0.0 | 11.3 | 0.00 | 0.00 | 0.00 | 58 | 1015.7 |
| 20260504141321 | 16 | 118 | 0.0 | 3.2 | 0.00 | 0.00 | 0.00 | 58 | 1015.8 |
| 20260504140817 | 16 | 306 | 0.0 | 3.2 | 0.00 | 0.00 | 0.00 | 56 | 1015.7 |
| 20260504140313 | 16 | 24 | 0.0 | 6.4 | 0.00 | 0.00 | 0.00 | 55 | 1015.5 |
| 20260504130742 | 14 | 294 | 1.6 | 3.2 | 0.00 | 0.00 | 0.00 | 57 | 1015.6 |
| 20260504130238 | 14 | 46 | 0.0 | 3.2 | 0.00 | 0.00 | 0.00 | 59 | 1015.6 |
| 20260504120202 | 8 | 171 | 0.0 | 0.0 | 0.00 | 0.00 | 0.00 | 93 | 1015.5 |
| 20260504110629 | 5 | 163 | 0.0 | 0.0 | 0.00 | 0.00 | 0.00 | 98 | 1015.3 |
| 20260504110125 | 5 | 163 | 0.0 | 0.0 | 0.00 | 0.00 | 0.00 | 98 | 1015.7 |
| 20260504100551 | 6 | 172 | 0.0 | 0.0 | 0.00 | 0.00 | 0.00 | 96 | 1015.8 |